OpenBCM V1.13 (Linux)

Packet Radio Mailbox

DB0FHN

[JN59NK Nuernberg]

 Login: GUEST





  
LU1HVK > KEP      10.01.20 17:36l 243 Lines 12025 Bytes #999 (0) @ WW
BID : 38558_LU1HVK
Read: DJ6UX GUEST
Subj: TLE 15 10
Path: DB0FHN<DB0FFL<OE5XBL<F1OYP<ON0AR<GB7CIP<N3HYM<XE1FH<LU3DVN<LU1HVK
Sent: 200110/1531Z 38558@LU1HVK.2594.CBA.ARG.SA LinBPQ6.0.19

                         _    _   _ _ _   ___     ___  __
                        | |  | | | / | | | \ \   / / |/ /
                        | |  | | | | | |_| |\ \ / /| ' /
                        | |__| |_| | |  _  | \ V / | . \
                        |_____\___/|_|_| |_|  \_/  |_|\_\

     BBS/NODO - CORDOBA (LEONES-FF87UH) - LU1HVK-4 NODO - LU1HVK-3 APRS

+----------------------------------------------------------------------------+
OSCAR 7
1  7530U 74089B   19287.89085087 -.00000045  00000-0 -31359-5 0  9992
2  7530 101.7602 254.4022 0012386 117.7350 298.1850 12.53640329 55331
OSCAR 11 (UoSAT 2)
1 14781U 84021B   19287.63388945 +.00000080 +00000-0 +15916-4 0  9993
2 14781 097.6050 306.7351 0007108 297.1211 062.9278 14.83112092895247
OSCAR 19 (LUSAT)
1 20442U 90005G   19287.88613836 +.00000006 +00000-0 +18383-4 0  9999
2 20442 098.6586 229.7378 0012099 156.0473 204.1276 14.32935063553248
EYESAT A
1 22825U 93061C   19287.88322163 -.00000006  00000-0  15878-4 0  9998
2 22825  98.9131 279.2710 0008794  21.7185 338.4367 14.30068499358848
ITAMSAT
1 22826U 93061D   19287.92728684 -.00000004 +00000-0 +16222-4 0  9994
2 22826 098.9071 279.2928 0009111 010.2224 349.9141 14.30402644358801
RADIO ROSTO
1 23439U 94085A   19287.91781512 -.00000048 +00000-0 -15734-3 0  9995
2 23439 064.8147 284.9369 0145232 090.1706 271.5860 11.27568316021220
JAS 2
1 24278U 96046B   19287.86005021 -.00000012 +00000-0 +26807-4 0  9998
2 24278 098.5558 065.3330 0349343 293.7390 062.7472 13.53093778143534
TECHSAT 1B
1 25397U 98043D   19287.90209298 -.00000011 +00000-0 +14597-4 0  9999
2 25397 098.6976 226.6564 0002303 069.1465 290.9960 14.23672141104475
ISS (ZARYA)
1 25544U 98067A   19288.06443424 -.00000265  00000-0  34077-5 0  9995
2 25544  51.6422 126.8334 0007206 148.8787 355.8149 15.50195464193858
PCSAT
1 26931U 01043C   19287.72532556 -.00000038  00000-0  17412-4 0  9992
2 26931  67.0518  59.0923 0007467 268.3383  91.6863 14.30555064941858
SAUDISAT 1C
1 27607U 02058C   19287.74497006 +.00000007 +00000-0 +21765-4 0  9993
2 27607 064.5561 048.6593 0075070 233.5595 125.8572 14.75578870904327
CUTE-1
1 27844U 03031E   19287.91781177 +.00000042 +00000-0 +38469-4 0  9990
2 27844 098.6853 294.3692 0010709 053.0746 307.1411 14.22199276845055
CUBESAT XI 4
1 27848U 03031J   19287.52144825 +.00000034 +00000-0 +35476-4 0  9990
2 27848 098.6928 294.5027 0010745 064.9435 295.2856 14.21791699844855
MOZHAYETS 4
1 27939U 03042A   19287.79006778  .00000079  00000-0  22696-4 0  9995
2 27939  98.0575  61.4202 0013986  57.2980 302.9580 14.66809262857853
CUBESAT XI 5
1 28895U 05043F   19287.91094628 +.00000111 +00000-0 +30182-4 0  9991
2 28895 097.9767 066.7082 0016260 342.9599 017.1056 14.63699181744546
CUTE-1.7+APD II
1 32785U 08021C   19287.81022013 +.00000173 +00000-0 +24309-4 0  9993
2 32785 097.5562 281.9926 0011879 226.9473 133.0751 14.88356643621183
DELFI C3
1 32789U 08021G   19287.67112774 +.00001397 +00000-0 +96737-4 0  9998
2 32789 097.4526 333.7127 0013718 083.8207 276.4584 15.07172464624632
SEEDS
1 32791U 08021J   19287.69642957 +.00000339 +00000-0 +39666-4 0  9997
2 32791 097.5316 287.9635 0012752 198.7999 161.2751 14.90886010621610
YUBELEINY
1 32953U 08025A   19287.87534354  .00000020  00000-0  75656-4 0  9998
2 32953  82.4997  71.2566 0018929 230.1014 129.8406 12.43091752516994
PRISM (HITOMI)
1 33493U 09002B   19287.79450915  .00000474  00000-0  46957-4 0  9990
2 33493  98.1215 213.2299 0015597 148.3963 211.8198 14.96756600582817
KKS-1 (KISEKI)
1 33499U 09002H   19287.87863992 +.00000062 +00000-0 +17106-4 0  9995
2 33499 098.3410 130.3154 0008954 182.6442 177.4721 14.75469092576223
SWISSCUBE
1 35932U 09051B   19287.70478931 +.00000124 +00000-0 +38968-4 0  9998
2 35932 098.5988 097.2170 0008035 156.4266 203.7300 14.56317835533912
BEESAT
1 35933U 09051C   19287.70069654  .00000095  00000-0  32493-4 0  9991
2 35933  98.6006  99.0200 0006019 166.5605 193.5753 14.56402749534062
ITUPSAT 1
1 35935U 09051E   19287.75783577 +.00000067 +00000-0 +26555-4 0  9996
2 35935 098.6115 099.3077 0008324 167.0289 193.1122 14.55558097533786
XIWANG-1 (HOPE-1)
1 36122U 09072B   19287.69494807 -.00000013 +00000-0 +77548-4 0  9996
2 36122 100.0792 284.5500 0008180 071.8127 288.3851 13.16351847472403
TISAT 1
1 36799U 10035E   19287.91945797 +.00000473 +00000-0 +53706-4 0  9990
2 36799 098.1710 084.1088 0013361 061.5608 298.6953 14.91175933502182
JUGNU
1 37839U 11058B   19287.49844160 +.00000311 +00000-0 +23700-4 0  9999
2 37839 019.9627 340.3797 0018753 185.1979 307.2500 14.12661181413829
SRMSAT
1 37841U 11058D   19287.49361869  .00000298  00000-0  18579-4 0  9994
2 37841  19.9732  39.6175 0012002  50.8590  26.0864 14.10641004413341
M-CUBED/EXP-1 PRIME
1 37855U 11061F   19287.82916337 +.00001493 +00000-0 +81796-4 0  9995
2 37855 101.7164 244.0786 0172992 086.5019 275.5961 15.05641313434083
HORYU 2
1 38340U 12025D   19287.82462262  .00000159  00000-0  31183-4 0  9992
2 38340  98.3176 329.8903 0012770 106.7777 253.4833 14.75759200398581
STRAND 1
1 39090U 13009E   19287.75571304  .00000014  00000-0  20195-4 0  9999
2 39090  98.4766 131.6766 0008226 302.7267  57.3125 14.35100306347323
SOMP
1 39134U 13015E   19287.57184602  .00001227  00000-0  64605-4 0  9997
2 39134  64.8645 358.4675 0037109 283.6205  76.0791 15.20393026358512
BEESAT 3
1 39135U 13015F   19287.70436077  .00000868  00000-0  52250-4 0  9992
2 39135  64.8697  18.0109 0036569 291.8592  67.8646 15.17652101358155
BEESAT 2
1 39136U 13015G   19287.65451512 +.00000800 +00000-0 +49924-4 0  9998
2 39136 064.8705 022.3346 0028298 297.1526 062.6715 15.17069547357675
CUBEBUG 1
1 39153U 13018D   19287.82892495  .00000197  00000-0  32538-4 0  9990
2 39153  97.9813  25.3080 0017215 171.3297 188.8215 14.80606912349291
ZACUBE
1 39417U 13066B   19287.93027047 +.00000212 +00000-0 +32940-4 0  9996
2 39417 097.5626 294.7874 0059118 007.8210 352.3911 14.81160695318540
TRITON 1
1 39427U 13066M   19287.93062230 +.00000170 +00000-0 +34885-4 0  9993
2 39427 097.6911 258.0921 0114490 146.3063 214.5489 14.67889434315498
GOMX 1
1 39430U 13066Q   19287.76593186  .00000087  00000-0  25238-4 0  9996
2 39430  97.7592 236.6147 0149903 241.8744 116.7244 14.59295204313828
HUMSAT D
1 39433U 13066T   19287.76566624  .00000190  00000-0  23878-4 0  9999
2 39433  97.5414 330.3725 0029200 266.3799  93.4082 14.92270243320681
CUBEBUG 2
1 39440U 13066AA  19287.92297879 +.00000213 +00000-0 +36327-4 0  9997
2 39440 097.6099 279.4239 0081547 061.4072 299.5313 14.75897550316219
FUNCUBE 1
1 39444U 13066AE  19287.93274930 +.00000265 +00000-0 +38896-4 0  9995
2 39444 097.5597 296.8463 0058060 001.2004 358.9339 14.81989023316850
UWE-3
1 39446U 13066AG  19287.92759889 +.00000208 +00000-0 +34074-4 0  9998
2 39446 097.5855 286.5663 0070893 035.2662 325.3210 14.78432949316146
SPROUT
1 39770U 14029E   19287.83033306  .00000573  00000-0  69355-4 0  9992
2 39770  97.8888  30.3930 0010094  61.4254 298.7950 14.87456257292394
UNISAT 6
1 40012U 14033C   19287.86197750 +.00000163 +00000-0 +31432-4 0  9995
2 40012 097.7397 149.2826 0059728 076.7928 283.9936 14.74017295286098
DUCHIFAT 1
1 40021U 14033M   19287.75219825 +.00000475 +00000-0 +54230-4 0  9998
2 40021 097.9248 212.7395 0013666 026.2884 333.9024 14.90703779289133
QB50P1
1 40025U 14033R   19287.84118501 +.00000267 +00000-0 +34305-4 0  9991
2 40025 097.9040 207.3211 0013360 036.1359 324.0758 14.88997799288398
CHUBUSAT 1
1 40300U 14070C   19287.79914330  .00000631  00000-0  30358-4 0  9995
2 40300  97.3183 358.9424 0020278   4.5904 114.0187 15.22203196273988
NUDT-PHONESAT
1 40900U 15049B   19287.77929907  .00001855  00000-0  81429-4 0  9996
2 40900  97.4373 295.9796 0013991 125.7266 321.0955 15.23134373225632
ZDPS 2A
1 40901U 15049C   19287.94463178 +.00000797 +00000-0 +42589-4 0  9997
2 40901 097.4621 292.0796 0014247 145.6863 274.2740 15.17871847225173
ZDPS 2B
1 40902U 15049D   19287.91836874 +.00001099 +00000-0 +57701-4 0  9990
2 40902 097.4580 289.4552 0014391 142.7752 286.4277 15.17737684225140
XW-2A
1 40903U 15049E   19287.75516043  .00001930  00000-0  46860-4 0  9994
2 40903  97.3258 331.1260 0015202  78.5692  15.2512 15.42187133228446
KAITUO 1A
1 40904U 15049F   19287.92807388 +.00000837 +00000-0 +47654-4 0  9996
2 40904 097.4710 287.9414 0015253 152.4020 296.1191 15.15463363224905
OBJECT G
1 40905U 15049G   19287.95438791 +.00000032 +00000-0 +53333-5 0  9997
2 40905 097.4761 285.3965 0016187 148.1672 266.7827 15.14359604224772
XW-2C
1 40906U 15049H   19287.90422422 +.00000316 +00000-0 +20017-4 0  9994
2 40906 097.4712 288.0547 0015555 144.1744 303.5166 15.15778734224900
XW-2D
1 40907U 15049J   19287.87247897  .00000760  00000-0  42984-4 0  9992
2 40907  97.4696 287.7041 0015048 141.1197 336.8863 15.15978607224918
LILACSAT 2
1 40908U 15049K   19287.91135829 +.00000192 +00000-0 +14204-4 0  9992
2 40908 097.4834 286.4371 0016607 148.8629 298.5859 15.13865023224690
XW-2F
1 40910U 15049M   19287.91355098 +.00000821 +00000-0 +44245-4 0  9994
2 40910 097.4660 289.9243 0015831 133.8309 314.3198 15.17464151224945
XW-2B
1 40911U 15049N   19287.77291593  .00000386  00000-0  23566-4 0  9997
2 40911  97.4714 288.2761 0014890 142.4375 304.4312 15.15904322224794
KAITUO 1B
1 40912U 15049P   19287.95697626 +.00000987 +00000-0 +49195-4 0  9998
2 40912 097.4513 293.7963 0016361 116.8414 305.1972 15.19797098225279
TIANWANG 1C (TW-1C)
1 40926U 15051B   19287.93342799 +.00012910 +00000-0 +17365-3 0  9994
2 40926 097.1238 334.0349 0005369 295.0184 190.4231 15.57989331228554
TIANWANG 1B (TW-1B)
1 40927U 15051C   19287.81728285  .00011908  00000-0  17094-3 0  9995
2 40927  97.1265 333.0473 0006226 315.4134 133.7384 15.56246913228377
